DECAYED

OBJECT DP, 63004 (Decayed)

Orbit data source: Space-Track

You're viewing an Uncataloged Satellite

Recently launched and/or uncataloged satellites may have evolving metadata. Metadata may include but not limited to: Owner, Maufacturer, Bus, Motor, and Mission.

OBJECT DP, 63004 was a satellite in LEO that was launched on Tue, 14 Jan 2025 UTC via an FALCON 9 launch vehicle from the Air Force Western Test Range (AFWTR). Unknown objects in Earth's orbit typically refer to objects detected orbiting the Earth but have not yet been identified or cataloged. These objects could be anything from previously untracked satellites, spent rocket stages, debris from satellite collisions, or even natural meteoroids temporarily captured by Earth's gravity. This object's orbit decayed before it could be identified.

Not visible in the next 10 days
Identifier
63004, 2025-009DP
Orbit
Decayed
Country
Flag of TBDTBD
Related business
None
Manufacturer
Unknown
Mission
Decayed Amateur Earth Obs Sci
Bus & Motor
Unknown
Mass
Unknown
Launch date (UTC)
2025-01-14 (1 year ago)
Launch vehicle
FALCON 9
Launch site
Air Force Western Test Range (AFWTR)
Object type
Unknown
Shape & HBR
Box, 1.1 m
Radar Cross Section
0.035 m², Small (<0.1 m²)

Expand to show TLE details & history
Last TLE update: 7 months ago

TLE from 7 months ago
0 OBJECT DP
1 63004U 25009DP  25286.18517579  .09308469  24423-5  40174-2 0  9992
2 63004  97.3992  13.0310 0012382 287.7742  72.2197 16.22490545 41725
Epoch: 2025-10-13T04:26Z
TLE epoch observation values (Epoch: 2025-10-13T04:26:39.188Z)
Latitude
0.00003°
Longitude
-75.62387°
Altitude
213.543 km
Speed
7.78 km/s
True Right ascension
00h 52m 07s
True Declination
0° 00' 00"
Sunlit
Object was in full shadow at epoch
Visualization orbit readout
Latitude
Unknown
Longitude
Unknown
Altitude
Unknown
Speed
Unknown
Apparent Right ascension
Unknown
Apparent Declination
Unknown
Sunlit
N/A
Visualization observer readout
Local Sidereal Time
05:16:04
Azimuth
Unknown
Elevation
Unknown
Doppler factor
Unknown
Orbital elements
Apogee altitude
217.786 km
Perigee altitude
201.472 km
Semi-major axis
6,587.766 km
Eccentricity
0.00124
Inclination
97.3992°
RAAN
13.031°
Arg. of periapsis
287.7742°
True anomaly
72.35487°
Mean anomaly
72.2197°
Eccentric anomaly
72.28728°
Mean motion
4.05916 °/min
Orbital period
88.69 mins
BSTAR
0.0040174
Loading maneuver chart data...
Computing Atmospheric mass density...
Loading historical data...
Loading historical data...
Loading historical data...
Loading historical data...
Loading historical data...
Loading historical data...
Loading historical data...

Documentation

Showing up to 5 results
|